This demonstration page uses our WeatherBlox Daily Observations layout. Learn more.

Left ArrowRight Arrow

41.86663, -103.66717

Hourly Observations for June 19, 2016

Temp ( °F °C ) Dew Point ( °F °C ) Humidity (%) Winds ( mph kmh ) Pressure ( in mb ) Visibility ( mi km ) Precip ( " mm )
12:53 am 00:53 Clear 74 23.3 58 14.4 57 57 SSE 16 26 29.97 1015 10 16 0.00 0.00
1:53 am 01:53 Clear 74 23.3 57 13.9 56 56 SSE 16 26 29.95 1014 10 16 0.00 0.00
2:53 am 02:53 Clear 75 23.9 57 13.9 54 54 S 10 17 29.94 1014 10 16 0.00 0.00
3:53 am 03:53 Clear 73 22.8 58 14.4 59 59 ESE 7 11 29.93 1014 10 16 0.00 0.00
4:53 am 04:53 Clear 72 22.2 58 14.4 61 61 S 7 11 29.92 1013 10 16 0.00 0.00
5:53 am 05:53 Sunny 73 22.8 58 14.4 59 59 S 8 13 29.92 1013 10 16 0.00 0.00
6:53 am 06:53 Sunny 73 22.8 60 15.6 64 64 E 6 9 29.92 1013 10 16 0.00 0.00
7:53 am 07:53 Sunny 74 23.3 61 16.1 64 64 SE 7 11 29.92 1013 10 16 0.00 0.00
8:53 am 08:53 Sunny 79 26.1 60 15.6 52 52 S 3 6 29.93 1014 10 16 0.00 0.00
9:53 am 09:53 Sunny 84 28.9 60 15.6 44 44 WNW 6 9 29.93 1014 10 16 0.00 0.00
10:53 am 10:53 Sunny 89 31.7 55 12.8 31 31 WNW 12 19 29.92 1013 10 16 0.00 0.00
11:53 am 11:53 Sunny 92 33.3 49 9.4 23 23 NW 17 28 29.94 1014 10 16 0.00 0.00
12:53 pm 12:53 Sunny 96 35.6 41 5 15 15 WNW 16 26 29.93 1013 10 16 0.00 0.00
1:53 pm 13:53 Sunny 96 35.6 40 4.4 14 14 NW 13 20 29.93 1014 10 16 0.00 0.00
2:53 pm 14:53 Sunny 94 34.4 40 4.4 15 15 WNW 8 13 29.93 1014 10 16 0.00 0.00
3:53 pm 15:53 Sunny 97 36.1 41 5 14 14 N 10 17 29.93 1013 10 16 0.00 0.00
4:53 pm 16:53 Sunny 96 35.6 40 4.4 14 14 VRB 6 9 29.93 1013 10 16 0.00 0.00
5:53 pm 17:53 Sunny 95 35 44 6.7 17 17 NW 5 7 29.93 1013 10 16 0.00 0.00
6:53 pm 18:53 Sunny 94 34.4 47 8.3 20 20 NW 3 6 29.93 1014 10 16 0.00 0.00
7:53 pm 19:53 Sunny 86 30 53 11.7 32 32 ENE 6 9 29.96 1015 10 16 0.00 0.00
8:53 pm 20:53 Clear 80 26.7 52 11.1 38 38 NE 9 15 29.98 1015 10 16 0.00 0.00
9:53 pm 21:53 Clear 77 25 59 15 54 54 E 8 13 30.01 1016 10 16 0.00 0.00
10:53 pm 22:53 Clear 74 23.3 61 16.1 64 64 ESE 6 9 30.03 1017 10 16 0.00 0.00
11:53 pm 23:53 Clear 70 21.1 60 15.6 71 71 E 7 11 30.04 1017 10 16 0.00 0.00

Powered by AerisWeather